Tracking 30923 objects as of 1-Jul-2025
HD Live streaming from Space Station
objects crossing your sky now

CZ-3B R/B

Track CZ-3B R/B now!
10-day predictions


NORAD ID: 45808
Int'l Code: 2020-040B
Perigee: 195.2 km
Apogee: 26,450.0 km
Inclination: 28.0 °
Period: 458.4 minutes
Semi major axis: 19693 km
RCS: Unknown
Launch date: June 23, 2020
Source: People's Republic of China (PRC)
Launch site: Xichang Space Center, China (XSC)

Note: This is a ROCKET BODY
Your satellite tracking list
Your tracking list is empty




NASA's NSSDC Master Catalog

Two Line Element Set (TLE):
1 45808U 20040B   25180.79729983  .00064920  44581-7  22826-2 0  9993
2 45808  28.0453 174.1593 6665817 108.4869 330.6102  3.14133570 49739
Source of the keplerian elements: AFSPC